TimeMDT,TemperatureF,Dew PointF,Humidity,Sea Level PressureIn,VisibilityMPH,Wind Direction,Wind SpeedMPH,Gust SpeedMPH,PrecipitationIn,Events,Conditions,WindDirDegrees,DateUTC
12:56 AM,43.9,32.9,65,29.96,10.0,Calm,Calm,-,N/A,,Clear,0,2013-06-16 06:56:00
1:56 AM,39.9,32.0,73,29.97,10.0,ESE,4.6,-,N/A,,Clear,110,2013-06-16 07:56:00
2:56 AM,37.9,31.1,76,29.96,10.0,East,4.6,-,N/A,,Clear,80,2013-06-16 08:56:00
3:56 AM,41.0,32.0,70,29.94,10.0,South,8.1,-,N/A,,Clear,180,2013-06-16 09:56:00
4:56 AM,38.8,30.0,71,29.95,10.0,South,3.5,-,N/A,,Clear,170,2013-06-16 10:56:00
5:56 AM,34.9,28.0,76,29.98,10.0,East,3.5,-,N/A,,Clear,80,2013-06-16 11:56:00
6:56 AM,45.9,31.1,56,29.95,10.0,SW,3.5,-,N/A,,Clear,230,2013-06-16 12:56:00
7:56 AM,54.0,31.1,42,29.95,10.0,Calm,Calm,-,N/A,,Clear,0,2013-06-16 13:56:00
8:56 AM,63.9,43.0,47,29.95,10.0,Calm,Calm,-,N/A,,Clear,0,2013-06-16 14:56:00
9:56 AM,70.9,29.1,21,29.94,10.0,Calm,Calm,-,N/A,,Clear,0,2013-06-16 15:56:00
10:56 AM,73.9,23.0,15,29.93,10.0,Variable,3.5,-,N/A,,Clear,0,2013-06-16 16:56:00
11:56 AM,75.9,27.1,16,29.93,10.0,NNE,8.1,-,N/A,,Clear,20,2013-06-16 17:56:00
12:56 PM,77.9,25.2,14,29.92,10.0,North,8.1,-,N/A,,Clear,360,2013-06-16 18:56:00
1:56 PM,79.0,28.0,15,29.92,10.0,North,4.6,-,N/A,,Partly Cloudy,350,2013-06-16 19:56:00
2:16 PM,78.8,26.6,15,30.14,10.0,West,10.4,-,N/A,,Scattered Clouds,270,2013-06-16 20:16:00
2:56 PM,79.0,34.0,20,29.91,10.0,NNW,12.7,-,N/A,,Partly Cloudy,330,2013-06-16 20:56:00
3:56 PM,74.8,37.9,26,29.91,10.0,North,10.4,-,N/A,,Partly Cloudy,360,2013-06-16 21:56:00
4:56 PM,73.9,24.1,16,29.92,10.0,NNW,12.7,20.7,N/A,Thunderstorm,Thunderstorm,340,2013-06-16 22:56:00
5:09 PM,78.8,24.8,14,30.13,10.0,WNW,9.2,-,N/A,,Partly Cloudy,290,2013-06-16 23:09:00
5:56 PM,72.0,26.1,18,29.98,10.0,Variable,6.9,-,N/A,,Scattered Clouds,0,2013-06-16 23:56:00
6:56 PM,70.9,31.1,23,29.93,10.0,South,25.3,33.4,N/A,,Partly Cloudy,190,2013-06-17 00:56:00
7:56 PM,68.9,38.8,33,29.90,10.0,SSE,5.8,-,N/A,,Clear,150,2013-06-17 01:56:00
8:56 PM,61.0,34.0,36,29.92,10.0,SW,5.8,-,N/A,,Clear,230,2013-06-17 02:56:00
9:56 PM,54.9,34.0,45,29.92,10.0,East,9.2,-,N/A,,Clear,80,2013-06-17 03:56:00
10:56 PM,48.9,36.9,63,29.94,10.0,South,5.8,-,N/A,,Clear,170,2013-06-17 04:56:00
11:56 PM,47.8,36.9,66,29.94,10.0,SSE,5.8,-,N/A,,Clear,150,2013-06-17 05:56:00